Middletown, PA

9:11 PM EDT on May 21, 2018 (GMT -0400)
Harrisburg International

Weather History for KMDT - April, 2013

Change the Weather History Date:

Saturday, April 27, 2013

  Actual Average Record
Temperature  
Mean Temperature 53 °F 56 °F  
Max Temperature 69 °F 67 °F 92 °F (1957)
Min Temperature 37 °F 46 °F 33 °F (1928)
Degree Days  
Heating Degree Days 12 9  
Month to date heating degree days 338 366  
Since 1 July heating degree days 4938 5077  
Cooling Degree Days 0 0  
Month to date cooling degree days 7 0  
Year to date cooling degree days 7 1  
Growing Degree Days 4 (Base 50)    
Moisture  
Dew Point 36 °F    
Average Humidity 53    
Maximum Humidity 79    
Minimum Humidity 26    
Precipitation  
Precipitation 0.00 in 0.10 in 1.79 in (1928)
Month to date precipitation 1.69 2.79  
Year to date precipitation 9.08 11.43  
Snow  
Snow 0.00 in 0.00 in 1.50 in (1928)
Month to date snowfall T 0.4  
Since 1 July snowfall 17.0 30.6  
Snow Depth 0.00 in    
Sea Level Pressure  
Sea Level Pressure 30.36 in    
Wind  
Wind Speed 3 mph (SE)    
Max Wind Speed 13 mph    
Max Gust Speed -    
Visibility 10 miles    
Events      
T = Trace of Precipitation, MM = Missing Value Source: NWS Daily Summary

Daily Weather History Graph

Daily Weather History Graph

Search for Another Location

Airport or City:

Astronomy

Apr. 27, 2013 Rise Set
Actual Time 6:11 AM EDT 7:58 PM EDT
Civil Twilight 5:42 AM EDT 8:27 PM EDT
Nautical Twilight 5:07 AM EDT 9:02 PM EDT
Astronomical Twilight 4:29 AM EDT 9:40 PM EDT
Moon 10:25 PM EDT (4/27) 7:28 AM EDT (4/27)
Length of Visible Light 14h 44m
Length of Day
13h 46m
Waning Gibbous, 95% of the Moon is Illuminated
Apr 27
Waning Gibbous
May 2
Last Quarter
May 9
New
May 18
First Quarter
May 25
Full

Hourly Weather History & Observations

Time (EDT) Temp. Windchill Dew Point Humidity Pressure Visibility Wind Dir Wind Speed Gust Speed Precip Events Conditions
12:56 AM 45.0 °F - 35.1 °F 68% 30.41 in 10.0 mi Calm Calm - N/A   Clear
1:56 AM 42.1 °F - 33.1 °F 70% 30.41 in 10.0 mi Calm Calm - N/A   Clear
2:56 AM 42.1 °F - 33.1 °F 70% 30.41 in 10.0 mi Calm Calm - N/A   Clear
3:56 AM 41.0 °F - 32.0 °F 70% 30.41 in 10.0 mi Calm Calm - N/A   Clear
4:56 AM 39.9 °F - 34.0 °F 79% 30.41 in 10.0 mi Calm Calm - N/A   Clear
5:56 AM 39.0 °F - 33.1 °F 79% 30.41 in 10.0 mi Calm Calm - N/A   Partly Cloudy
6:56 AM 39.9 °F 37.8 °F 33.1 °F 77% 30.43 in 10.0 mi NNE 3.5 mph - N/A   Clear
7:56 AM 48.0 °F - 30.9 °F 52% 30.44 in 10.0 mi Calm Calm - N/A   Clear
8:56 AM 51.1 °F - 35.1 °F 54% 30.45 in 10.0 mi SSE 3.5 mph - N/A   Clear
9:56 AM 55.9 °F - 35.1 °F 45% 30.44 in 10.0 mi SSE 3.5 mph - N/A   Clear
10:56 AM 59.0 °F - 36.0 °F 42% 30.43 in 10.0 mi ESE 3.5 mph - N/A   Clear
11:56 AM 62.1 °F - 36.0 °F 38% 30.41 in 10.0 mi ESE 4.6 mph - N/A   Clear
12:56 PM 64.0 °F - 35.1 °F 34% 30.38 in 10.0 mi SSE 4.6 mph - N/A   Clear
1:56 PM 66.9 °F - 34.0 °F 30% 30.35 in 10.0 mi SE 4.6 mph - N/A   Clear
2:56 PM 66.9 °F - 30.9 °F 26% 30.33 in 10.0 mi SSE 4.6 mph - N/A   Clear
3:56 PM 69.1 °F - 34.0 °F 27% 30.31 in 10.0 mi SE 4.6 mph - N/A   Partly Cloudy
4:56 PM 68.0 °F - 37.0 °F 32% 30.29 in 10.0 mi SE 9.2 mph - N/A   Partly Cloudy
5:56 PM 66.9 °F - 37.9 °F 34% 30.29 in 10.0 mi SE 5.8 mph - N/A   Partly Cloudy
6:56 PM 63.0 °F - 41.0 °F 45% 30.28 in 10.0 mi SE 3.5 mph - N/A   Partly Cloudy
7:56 PM 57.9 °F - 46.9 °F 67% 30.27 in 10.0 mi Calm Calm - N/A   Mostly Cloudy
8:56 PM 54.0 °F - 44.1 °F 69% 30.28 in 10.0 mi Calm Calm - N/A   Scattered Clouds
9:56 PM 61.0 °F - 37.0 °F 41% 30.28 in 10.0 mi SSW 6.9 mph - N/A   Scattered Clouds
10:56 PM 57.9 °F - 39.0 °F 49% 30.28 in 10.0 mi South 4.6 mph - N/A   Scattered Clouds
11:56 PM 55.9 °F - 35.1 °F 45% 30.27 in 10.0 mi East 3.5 mph - N/A   Scattered Clouds